Date String (YYYY-MM-DD hh:mm:ss) UTC,Instrument flags,absolute air pressure of the measurement (hPa),sample flow rate (lpm),inlet stack bypass flow (lpm),air temperature of the measurement (°C),ambient temperature measured by the external sensor (°C),aerosol sample conditioner tube jacket temperature (°C),OPC LED temperature (°C),internal box temperature (°C),relative humidity of the measurement (%),span deviation,mass concentration of particles derived from Lorenz-Mie calculation of OPC scattering (μg/m³),mass concentration of particles derived from Lorenz-Mie calculation of OPC scattering (μg/m³),mass concentration of particles derived from Lorenz-Mie calculation of OPC scattering (μg/m³)
DateTimeUTC,F1_M11,P_M11,Q1_M11,Q2_M11,T1_M11,T2_M11,T3_M11,T4_M11,T5_M11,U1_M11,ZSPAN_M11,X0_M11,X2_M11,X1_M11
2023-06-19 20:00:00,SystemResetWarning,0824.8,5.01,000.00,029.0,024.6,000.0,037.4,030.5,17.0,0000.0,0015.52,0004.94,0003.74
2023-06-19 20:01:00,SystemResetWarning,0824.8,4.99,000.00,028.9,025.0,000.0,037.4,030.3,18.6,0000.0,0014.40,0004.92,0003.74
2023-06-19 20:02:00,SystemResetWarning,0824.8,5.01,000.00,028.9,025.5,000.0,037.4,030.3,17.6,0000.0,0014.00,0004.92,0003.73
2023-06-19 20:03:00,SystemResetWarning,0824.8,5.01,000.00,028.9,026.0,000.0,037.4,030.3,15.7,0000.0,0013.68,0004.92,0003.73
2023-06-19 20:04:00,SystemResetWarning,0824.9,4.99,000.00,028.9,026.4,000.0,037.4,030.4,16.3,0000.0,0013.19,0004.90,0003.72
2023-06-19 20:05:00,SystemResetWarning,0824.9,4.99,000.00,028.9,026.8,000.0,037.4,030.5,16.5,0000.0,0012.92,0004.92,0003.71
2023-06-19 20:06:00,SystemResetWarning,0824.9,5.02,000.00,029.0,027.1,000.0,037.4,030.6,16.6,0000.0,0012.22,0004.88,0003.71
2023-06-19 20:07:00,SystemResetWarning,0824.9,4.99,000.00,029.0,027.4,000.0,037.5,030.7,16.5,0000.0,0011.91,0004.88,0003.73
2023-06-19 20:08:00,SystemResetWarning,0824.9,4.99,000.00,029.1,027.5,000.0,037.5,030.8,17.5,0000.0,0012.35,0004.86,0003.74
2023-06-19 20:09:00,SystemResetWarning,0824.9,4.99,000.00,029.1,026.1,000.0,037.5,030.7,17.8,0000.0,0011.98,0004.86,0003.74
2023-06-19 20:10:00,SystemResetWarning,0824.9,5.01,000.00,029.1,025.3,000.0,037.4,030.7,16.8,0000.0,0011.53,0004.84,0003.75
2023-06-19 20:11:00,SystemResetWarning,0824.9,5.01,000.00,029.1,025.6,000.0,037.4,030.6,17.7,0000.0,0011.40,0004.79,0003.76
2023-06-19 20:12:00,SystemResetWarning,0824.9,5.00,000.00,029.0,025.9,000.0,037.4,030.5,18.6,0000.0,0011.48,0004.81,0003.76
2023-06-19 20:13:00,SystemResetWarning,0824.9,5.00,000.00,029.0,026.3,000.0,037.4,030.5,18.7,0000.0,0011.76,0004.84,0003.77
2023-06-19 20:14:00,SystemResetWarning,0824.9,5.00,000.00,029.0,026.7,000.0,037.5,030.6,16.5,0000.0,0011.89,0004.83,0003.78
2023-06-19 20:15:00,SystemResetWarning,0824.9,4.98,000.00,029.1,027.0,000.0,037.5,030.7,17.3,0000.0,0012.16,0004.81,0003.77
2023-06-19 20:16:00,SystemResetWarning,0824.9,5.00,000.00,029.1,027.3,000.0,037.5,030.7,18.7,0000.0,0012.40,0004.78,0003.76
2023-06-19 20:17:00,SystemResetWarning,0824.8,5.02,000.00,029.1,027.5,000.0,037.5,030.8,16.4,0000.0,0013.16,0004.78,0003.73
2023-06-19 20:18:00,SystemResetWarning,0824.8,4.98,000.00,029.2,026.1,000.0,037.5,030.8,16.6,0000.0,0014.17,0004.80,0003.71
2023-06-19 20:19:00,SystemResetWarning,0824.9,5.01,000.00,029.1,024.2,000.0,037.5,030.7,19.0,0000.0,0014.01,0004.79,0003.70
2023-06-19 20:20:00,SystemResetWarning,0824.8,5.01,000.00,029.1,024.4,000.0,037.4,030.7,18.4,0000.0,0013.82,0004.79,0003.70
2023-06-19 20:21:00,SystemResetWarning,0824.8,5.00,000.00,029.0,024.9,000.0,037.4,030.5,16.5,0000.0,0013.95,0004.80,0003.69
2023-06-19 20:22:00,SystemResetWarning,0824.8,5.00,000.00,029.0,025.3,000.0,037.4,030.4,16.5,0000.0,0014.09,0004.85,0003.70
2023-06-19 20:23:00,SystemResetWarning,0824.8,5.00,000.00,028.9,025.8,000.0,037.4,030.4,15.7,0000.0,0014.12,0004.83,0003.70
2023-06-19 20:24:00,SystemResetWarning,0824.8,4.99,000.00,029.0,026.3,000.0,037.4,030.5,16.7,0000.0,0013.92,0004.78,0003.69
2023-06-19 20:25:00,SystemResetWarning,0824.7,5.00,000.00,029.0,026.7,000.0,037.5,030.6,16.8,0000.0,0013.84,0004.80,0003.68
2023-06-19 20:26:00,SystemResetWarning,0824.8,5.01,000.00,029.0,027.0,000.0,037.5,030.7,18.2,0000.0,0013.64,0004.85,0003.68
2023-06-19 20:27:00,SystemResetWarning,0824.8,4.99,000.00,029.1,027.4,000.0,037.5,030.8,20.0,0000.0,0014.74,0004.87,0003.71
2023-06-19 20:28:00,SystemResetWarning,0824.8,4.99,000.00,029.1,027.3,000.0,037.5,030.8,18.3,0000.0,0014.23,0004.89,0003.73
2023-06-19 20:29:00,SystemResetWarning,0824.7,5.00,000.00,029.1,025.5,000.0,037.5,030.8,17.7,0000.0,0013.33,0004.90,0003.76
2023-06-19 20:30:00,SystemResetWarning,0824.7,5.01,000.00,029.1,025.3,000.0,037.4,030.8,17.8,0000.0,0012.32,0004.89,0003.78
2023-06-19 20:31:00,SystemResetWarning,0824.7,5.01,000.00,029.1,025.6,000.0,037.4,030.6,16.7,0000.0,0012.67,0004.90,0003.79
2023-06-19 20:32:00,SystemResetWarning,0824.7,4.99,000.00,029.0,026.0,000.0,037.5,030.5,16.0,0000.0,0012.88,0004.92,0003.81
2023-06-19 20:33:00,SystemResetWarning,0824.7,5.00,000.00,029.0,026.4,000.0,037.5,030.5,19.1,0000.0,0012.63,0004.92,0003.82
2023-06-19 20:34:00,SystemResetWarning,0824.7,5.01,000.00,029.1,026.8,000.0,037.5,030.6,17.5,0000.0,0012.50,0004.91,0003.83
2023-06-19 20:35:00,SystemResetWarning,0824.7,5.00,000.00,029.1,027.1,000.0,037.5,030.7,16.0,0000.0,0012.74,0004.92,0003.85
2023-06-19 20:36:00,SystemResetWarning,0824.7,4.98,000.00,029.1,027.4,000.0,037.5,030.8,18.4,0000.0,0012.76,0004.91,0003.86
2023-06-19 20:37:00,SystemResetWarning,0824.7,5.00,000.00,029.2,026.5,000.0,037.5,030.9,18.8,0000.0,0013.20,0004.90,0003.87
2023-06-19 20:38:00,SystemResetWarning,0824.7,5.00,000.00,029.1,024.4,000.0,037.5,030.7,17.7,0000.0,0012.36,0004.89,0003.88
2023-06-19 20:39:00,SystemResetWarning,0824.7,5.01,000.00,029.1,024.3,000.0,037.4,030.7,17.1,0000.0,0011.71,0004.94,0003.88
2023-06-19 20:40:00,SystemResetWarning,0824.7,5.01,000.00,029.0,024.8,000.0,037.4,030.5,18.7,0000.0,0011.70,0004.91,0003.87
2023-06-19 20:41:00,SystemResetWarning,0824.7,4.99,000.00,029.0,025.2,000.0,037.4,030.4,19.0,0000.0,0012.48,0004.96,0003.88
2023-06-19 20:42:00,SystemResetWarning,0824.7,5.00,000.00,028.9,025.7,000.0,037.4,030.4,18.7,0000.0,0013.52,0004.98,0003.87
2023-06-19 20:43:00,SystemResetWarning,0824.7,5.01,000.00,029.0,026.2,000.0,037.4,030.5,19.0,0000.0,0013.30,0004.97,0003.88
2023-06-19 20:44:00,SystemResetWarning,0824.7,4.98,000.00,029.0,026.6,000.0,037.5,030.6,18.8,0000.0,0013.44,0004.93,0003.87
2023-06-19 20:45:00,SystemResetWarning,0824.7,5.01,000.00,029.0,027.0,000.0,037.5,030.7,19.5,0000.0,0013.97,0004.96,0003.87
2023-06-19 20:46:00,SystemResetWarning,0824.7,5.01,000.00,029.1,027.3,000.0,037.5,030.7,20.1,0000.0,0013.85,0004.95,0003.85
2023-06-19 20:47:00,SystemResetWarning,0824.7,4.99,000.00,029.1,027.4,000.0,037.5,030.8,20.3,0000.0,0014.07,0004.94,0003.85
2023-06-19 20:48:00,SystemResetWarning,0824.7,4.99,000.00,029.1,026.0,000.0,037.5,030.8,19.3,0000.0,0013.92,0004.96,0003.85
2023-06-19 20:49:00,SystemResetWarning,0824.6,5.01,000.00,029.1,025.3,000.0,037.4,030.8,18.3,0000.0,0014.18,0004.97,0003.84
2023-06-19 20:50:00,SystemResetWarning,0824.5,5.01,000.00,029.1,025.6,000.0,037.4,030.6,21.0,0000.0,0014.13,0004.98,0003.84
2023-06-19 20:51:00,SystemResetWarning,0824.5,4.99,000.00,029.0,026.0,000.0,037.5,030.5,19.8,0000.0,0014.30,0005.00,0003.83
2023-06-19 20:52:00,SystemResetWarning,0824.5,4.99,000.00,029.0,026.4,000.0,037.5,030.6,21.8,0000.0,0014.72,0004.95,0003.82
2023-06-19 20:53:00,SystemResetWarning,0824.5,5.00,000.00,029.0,026.7,000.0,037.5,030.7,21.5,0000.0,0013.79,0004.97,0003.82
2023-06-19 20:54:00,SystemResetWarning,0824.5,5.01,000.00,029.1,027.1,000.0,037.5,030.7,22.2,0000.0,0014.03,0005.02,0003.81
2023-06-19 20:55:00,SystemResetWarning,0824.5,5.01,000.00,029.1,027.4,000.0,037.5,030.8,22.4,0000.0,0014.09,0005.02,0003.79
2023-06-19 20:56:00,SystemResetWarning,0824.5,4.98,000.00,029.2,026.9,000.0,037.5,030.9,23.5,0000.0,0013.94,0004.99,0003.77
2023-06-19 20:57:00,SystemResetWarning,0824.5,4.99,000.00,029.2,024.8,000.0,037.5,030.7,25.0,0000.0,0013.94,0005.02,0003.76
2023-06-19 20:58:00,SystemResetWarning,0824.5,5.01,000.00,029.1,024.2,000.0,037.4,030.6,21.0,0000.0,0013.75,0005.08,0003.75
2023-06-19 20:59:00,SystemResetWarning,0824.4,5.00,000.00,029.1,024.7,000.0,037.4,030.5,20.5,0000.0,0014.01,0005.07,0003.74
